Date,TemperatureHighF,TemperatureAvgF,TemperatureLowF,DewpointHighF,DewpointAvgF,DewpointLowF,HumidityHigh,HumidityAvg,HumidityLow,PressureMaxIn,PressureMinIn,WindSpeedMaxMPH,WindSpeedAvgMPH,GustSpeedMaxMPH,PrecipitationSumIn
2013-1-1,38,34,24,31,26,14,79,70,60,30.00,29.83,9,3,20,0.00
2013-1-2,30,25,19,20,16,13,77,69,61,30.17,29.99,8,2,17,0.00
2013-1-3,31,24,12,22,16,6,78,71,57,30.21,30.06,6,1,10,0.00
2013-1-4,38,32,24,28,24,20,85,73,63,30.06,29.93,8,2,18,0.00
2013-1-5,42,34,25,29,25,22,91,70,58,30.26,29.98,16,3,23,0.00
2013-1-6,45,35,28,34,30,25,91,80,63,30.22,29.95,6,1,12,0.00
2013-1-7,44,35,23,33,28,21,92,76,54,30.40,30.04,8,1,17,0.00
2013-1-8,48,33,20,36,28,19,97,81,62,30.43,30.33,7,1,15,0.00
2013-1-9,45,35,23,39,31,22,97,87,75,30.39,30.13,6,1,12,0.00
2013-1-10,47,40,30,35,29,26,86,65,50,30.54,30.21,10,3,22,0.00
2013-1-11,42,36,28,42,32,25,99,88,76,30.54,30.10,6,1,9,0.38
2013-1-12,46,43,41,45,43,41,100,99,97,30.17,30.08,2,0,7,0.04
2013-1-13,46,44,42,46,44,42,100,100,100,30.15,30.00,5,1,9,0.01
2013-1-14,55,48,36,54,44,33,100,87,70,30.29,29.89,22,3,22,0.12
2013-1-15,38,36,33,33,30,28,94,80,71,30.35,30.22,7,1,10,0.13
2013-1-16,35,32,31,33,32,30,98,96,81,30.25,29.81,5,1,12,0.57
2013-1-17,43,37,32,34,31,25,98,79,64,30.09,29.90,8,2,16,0.00
2013-1-18,31,25,20,24,14,10,77,64,48,30.48,30.02,8,3,17,0.00
2013-1-19,47,38,27,33,27,16,75,64,55,30.39,29.91,9,4,22,0.00
2013-1-20,52,41,28,36,28,15,78,60,38,30.02,29.67,10,5,22,0.00
2013-1-21,30,27,20,22,18,14,82,68,56,30.09,29.82,12,3,12,0.00
2013-1-22,25,18,12,20,5,-4,80,56,44,30.20,29.82,25,9,25,0.00
2013-1-23,19,13,9,4,0,-3,76,56,46,30.25,30.15,20,6,20,0.00
2013-1-24,22,14,6,5,3,1,85,64,44,30.39,30.14,28,7,28,0.00
2013-1-25,23,17,12,17,8,3,89,69,52,30.41,30.07,16,4,16,0.03
2013-1-26,26,18,8,15,10,6,99,73,52,30.36,30.05,20,5,20,0.00
2013-1-27,32,23,13,16,13,8,84,67,47,30.52,30.36,13,3,13,0.00
2013-1-28,34,28,18,33,25,13,97,90,72,30.50,30.00,12,2,12,0.17
2013-1-29,43,37,34,41,36,33,100,94,86,30.15,30.00,10,2,10,0.09
2013-1-30,54,47,38,54,46,37,100,99,97,30.10,29.36,15,4,15,0.06
2013-1-31,58,44,28,58,34,15,100,70,47,29.75,29.02,35,13,35,1.04